Location: Unspecified
(27.8252°N, 0.0000°E)
Time: 10:15:25
(UTC+00:00)

Explorer 7 - All Passes

Search period start: 04 April 2026 00:00
Search period end: 14 April 2026 00:00
Orbit: 429 x 539 km, 50.2° (Epoch: 29 March)

Date Brightness Start Highest point End Pass type
(mag) Time Alt. Az. Time Alt. Az. Time Alt. Az.
4 Apr - 03:21:10 10° N 03:23:44 18° NE 03:26:15 10° E visible
4 Apr - 04:58:54 10° WNW 05:02:07 33° SW 05:05:14 10° SSE visible
4 Apr - 18:35:43 10° S 18:38:38 19° SE 18:41:31 10° E visible
4 Apr - 20:12:59 10° WSW 20:16:47 38° NW 20:20:32 10° NNE visible
5 Apr - 02:54:13 10° N 02:56:41 17° NE 02:59:05 10° E visible
5 Apr - 04:31:47 10° WNW 04:35:06 37° SW 04:38:18 10° SSE visible
5 Apr - 18:08:51 10° S 18:11:35 17° SE 18:14:17 10° E daylight
5 Apr - 19:45:50 10° WSW 19:49:42 41° NW 19:53:31 10° NNE visible
6 Apr - 02:27:14 10° N 02:29:35 16° NE 02:31:52 10° ENE night (unlit)
6 Apr - 04:04:39 10° WNW 04:08:03 41° SW 04:11:20 10° SSE visible
6 Apr - 17:41:58 10° SSE 17:44:29 16° SE 17:46:59 10° E daylight
6 Apr - 19:18:40 10° WSW 19:22:35 45° NW 19:26:27 10° NNE visible
7 Apr - 02:00:14 10° N 02:02:27 15° NE 02:04:37 10° ENE night (unlit)
7 Apr - 03:37:29 10° WNW 03:40:58 46° SW 03:44:19 10° SSE night (unlit)
7 Apr - 17:15:07 10° SSE 17:17:22 14° SE 17:19:38 10° E daylight
7 Apr - 18:51:28 10° WSW 18:55:26 50° NW 18:59:22 10° NNE visible
8 Apr - 01:33:13 10° N 01:35:17 14° NNE 01:37:19 10° ENE night (unlit)
8 Apr - 03:10:19 10° NW 03:13:51 52° SW 03:17:16 10° SSE night (unlit)
8 Apr - 16:48:18 10° SSE 16:50:14 13° SE 16:52:11 10° E daylight
8 Apr - 18:24:15 10° WSW 18:28:15 55° NW 18:32:14 10° NE daylight
9 Apr - 01:06:11 10° N 01:08:05 13° NNE 01:09:58 10° ENE night (unlit)
9 Apr - 02:43:06 10° NW 02:46:42 59° SW 02:50:10 10° SSE night (unlit)
9 Apr - 16:21:32 10° SSE 16:23:04 12° SE 16:24:37 10° ESE daylight
9 Apr - 17:57:01 10° SW 18:01:03 60° NW 18:05:04 10° NE daylight
10 Apr - 00:39:09 10° N 00:40:52 13° NNE 00:42:33 10° ENE night (unlit)
10 Apr - 02:15:53 10° NW 02:19:33 67° SW 02:23:03 10° SE night (unlit)
10 Apr - 15:54:57 10° SE 15:55:52 11° SE 15:56:49 10° ESE daylight
10 Apr - 17:29:46 10° SW 17:33:49 66° NW 17:37:52 10° NE daylight
11 Apr - 00:12:07 10° N 00:13:36 12° NNE 00:15:05 10° NE night (unlit)
11 Apr - 01:48:38 10° NW 01:52:20 75° SW 01:55:53 10° SE night (unlit)
11 Apr - 17:02:30 10° SW 17:06:34 73° NW 17:10:38 10° NE daylight
11 Apr - 18:44:33 10° NW 18:45:28 11° NNW 18:46:22 10° NNW visible
11 Apr - 23:45:05 10° NNE 23:46:19 11° NNE 23:47:31 10° NE night (unlit)
12 Apr - 01:21:21 10° NW 01:25:05 84° SW 01:28:40 10° SE night (unlit)
12 Apr - 16:35:13 10° SW 16:39:16 81° NW 16:43:21 10° NE daylight
12 Apr - 18:16:46 10° NW 18:18:08 11° NNW 18:19:30 10° NNW daylight
12 Apr - 23:18:08 10° NNE 23:19:00 11° NNE 23:19:51 10° NE night (unlit)
13 Apr - 00:54:03 10° NW 00:57:49 87° NE 01:01:26 10° SE night (unlit)
13 Apr - 16:07:54 10° SW 16:11:57 89° NW 16:16:03 10° NE daylight
13 Apr - 17:49:05 10° NW 17:50:46 12° NNW 17:52:28 10° N daylight
